This demonstration page uses our WeatherBlox Daily Observations layout. Learn more.

Left ArrowRight Arrow

Hourly Observations for June 25, 2021

Temp ( °F °C ) Dew Point ( °F °C ) Humidity (%) Winds ( mph kmh ) Pressure ( in mb ) Visibility ( mi km ) Precip ( " mm )
12:53 am 00:53 Clear 77 25 53 11.7 43 43 N 5 7 29.91 1013 10 16 0.00 0.00
1:53 am 01:53 Clear 77 25 52 11.1 42 42 NNE 5 7 29.90 1013 10 16 0.00 0.00
2:53 am 02:53 Clear 75 23.9 52 11.1 45 45 N 3 6 29.88 1012 10 16 0.00 0.00
3:53 am 03:53 Clear 72 22.2 52 11.1 50 50 NW 5 7 29.88 1012 10 16 0.00 0.00
4:53 am 04:53 Clear 70 21.1 52 11.1 53 53 W 6 9 29.89 1012 10 16 0.00 0.00
5:53 am 05:53 Sunny 69 20.6 53 11.7 57 57 ESE 3 6 29.90 1013 10 16 0.00 0.00
6:53 am 06:53 Sunny 71 21.7 55 12.8 57 57 SE 5 7 29.92 1013 10 16 0.00 0.00
7:53 am 07:53 Sunny 76 24.4 54 12.2 47 47 Calm 29.92 1013 10 16 0.00 0.00
8:53 am 08:53 Sunny 79 26.1 54 12.2 42 42 NNW 3 6 29.92 1013 10 16 0.00 0.00
9:53 am 09:53 Sunny 82 27.8 53 11.7 37 37 Calm 29.90 1013 10 16 0.00 0.00
10:53 am 10:53 Sunny 87 30.6 52 11.1 30 30 SE 3 6 29.88 1012 10 16 0.00 0.00
11:53 am 11:53 Sunny 91 32.8 53 11.7 27 27 Calm 29.86 1011 10 16 0.00 0.00
12:53 pm 12:53 Sunny 94 34.4 52 11.1 24 24 SSE 5 7 29.84 1011 10 16 0.00 0.00
1:53 pm 13:53 Sunny 99 37.2 50 10 19 19 undefined N/A 29.82 1010 10 16 0.00 0.00
2:53 pm 14:53 Sunny 101 38.3 42 5.6 13 13 WNW 5 7 29.80 1009 10 16 0.00 0.00
3:53 pm 15:53 Sunny 103 39.4 45 7.2 14 14 VRB 6 9 29.78 1008 10 16 0.00 0.00
4:53 pm 16:53 Sunny 103 39.4 51 10.6 18 18 SSE 13 20 29.75 1008 10 16 0.00 0.00
5:53 pm 17:53 Sunny 103 39.4 53 11.7 19 19 S 15 24 29.75 1007 10 16 0.00 0.00
6:53 pm 18:53 Sunny 101 38.3 54 12.2 21 21 S 15 24 29.73 1007 10 16 0.00 0.00
7:53 pm 19:53 Sunny 97 36.1 57 13.9 26 26 SSE 12 19 29.75 1007 10 16 0.00 0.00
8:53 pm 20:53 Clear 90 32.2 62 16.7 39 39 SSE 12 19 29.77 1008 10 16 0.00 0.00
9:53 pm 21:53 Clear 87 30.6 61 16.1 42 42 SSE 9 15 29.80 1009 10 16 0.00 0.00
10:53 pm 22:53 Clear 85 29.4 61 16.1 45 45 Calm 29.84 1010 10 16 0.00 0.00
11:53 pm 23:53 Clear 82 27.8 61 16.1 49 49 N 3 6 29.86 1011 10 16 0.00 0.00

Powered by AerisWeather